�������l�o���
Date,Time,MP-1(��Sv/h),MP-2(��Sv/h),MP-3(��Sv/h),MP-4(��Sv/h),MP-5(��Sv/h),MP-6(��Sv/h),MP-7(��Sv/h),MP-8(��Sv/h),����,����(m/s),���J
2021/04/07,00:00,0.623,0.918,0.581,1.126,0.801,0.367,0.648,0.609,�k��,5.8,��
2021/04/07,00:10,0.623,0.919,0.580,1.125,0.803,0.368,0.649,0.610,�k��,6.0,��
2021/04/07,00:20,0.624,0.917,0.583,1.126,0.804,0.368,0.648,0.610,�k��,5.7,��
2021/04/07,00:30,0.623,0.919,0.580,1.124,0.804,0.368,0.650,0.609,�k��,5.7,��
2021/04/07,00:40,0.623,0.918,0.580,1.126,0.801,0.368,0.648,0.610,�k��,6.4,��
2021/04/07,00:50,0.622,0.916,0.581,1.124,0.801,0.367,0.648,0.610,�k��,6.8,��
2021/04/07,01:00,0.622,0.917,0.580,1.125,0.804,0.368,0.648,0.610,�k��,6.9,��
2021/04/07,01:10,0.622,0.917,0.580,1.125,0.802,0.368,0.649,0.610,�k��,6.6,��
2021/04/07,01:20,0.623,0.918,0.581,1.125,0.800,0.368,0.647,0.609,�k��,6.4,��
2021/04/07,01:30,0.623,0.916,0.580,1.126,0.801,0.370,0.647,0.610,�k��,6.4,��
2021/04/07,01:40,0.623,0.916,0.581,1.123,0.803,0.369,0.649,0.609,�k��,5.5,��
2021/04/07,01:50,0.624,0.916,0.583,1.124,0.801,0.367,0.649,0.610,�k��,5.3,��
2021/04/07,02:00,0.622,0.916,0.580,1.124,0.801,0.367,0.649,0.611,�k��,6.1,��
2021/04/07,02:10,0.623,0.917,0.583,1.125,0.803,0.369,0.650,0.610,�k��,5.4,��
2021/04/07,02:20,0.622,0.919,0.583,1.125,0.803,0.368,0.649,0.611,�k��,6.3,��
2021/04/07,02:30,0.622,0.916,0.582,1.127,0.802,0.368,0.648,0.609,�k��,5.7,��
2021/04/07,02:40,0.624,0.916,0.582,1.126,0.803,0.368,0.649,0.609,�k��,5.7,��
2021/04/07,02:50,0.622,0.918,0.582,1.125,0.801,0.368,0.650,0.609,�k��,6.3,��
2021/04/07,03:00,0.623,0.917,0.582,1.127,0.802,0.367,0.649,0.610,�k��,5.9,��
2021/04/07,03:10,0.622,0.916,0.581,1.125,0.803,0.368,0.649,0.610,�k�k��,6.4,��
2021/04/07,03:20,0.623,0.916,0.581,1.126,0.803,0.368,0.648,0.610,�k�k��,7.1,��
2021/04/07,03:30,0.622,0.917,0.582,1.125,0.803,0.368,0.648,0.610,�k�k��,7.8,��
2021/04/07,03:40,0.623,0.917,0.581,1.128,0.804,0.369,0.649,0.611,�k�k��,7.4,��
2021/04/07,03:50,0.622,0.915,0.582,1.126,0.803,0.368,0.648,0.610,�k�k��,8.5,��
2021/04/07,04:00,0.621,0.916,0.581,1.127,0.803,0.368,0.648,0.609,�k�k��,7.3,��
2021/04/07,04:10,0.622,0.918,0.581,1.128,0.803,0.369,0.650,0.610,�k�k��,7.3,��
2021/04/07,04:20,0.623,0.916,0.581,1.127,0.802,0.367,0.649,0.611,�k�k��,7.4,��
2021/04/07,04:30,0.621,0.916,0.582,1.127,0.804,0.368,0.648,0.612,�k�k��,6.8,��
2021/04/07,04:40,0.623,0.917,0.582,1.126,0.801,0.369,0.650,0.611,�k�k��,6.8,��
2021/04/07,04:50,0.624,0.915,0.583,1.128,0.803,0.368,0.647,0.609,�k�k��,7.5,��
2021/04/07,05:00,0.623,0.917,0.581,1.125,0.803,0.368,0.649,0.609,�k�k��,8.0,��
2021/04/07,05:10,0.622,0.917,0.580,1.128,0.803,0.371,0.648,0.610,�k�k��,6.3,��
2021/04/07,05:20,0.622,0.918,0.581,1.127,0.803,0.369,0.649,0.610,�k�k��,6.8,��
2021/04/07,05:30,0.622,0.918,0.581,1.125,0.803,0.367,0.649,0.610,�k�k��,7.5,��
2021/04/07,05:40,0.622,0.917,0.581,1.126,0.800,0.369,0.649,0.611,�k��,7.2,��
2021/04/07,05:50,0.623,0.914,0.583,1.127,0.802,0.368,0.648,0.609,�k�k��,6.9,��
2021/04/07,06:00,0.621,0.918,0.582,1.128,0.803,0.367,0.649,0.610,�k�k��,6.7,��
2021/04/07,06:10,0.621,0.918,0.581,1.128,0.803,0.369,0.648,0.608,�k�k��,6.4,��
2021/04/07,06:20,0.623,0.916,0.581,1.125,0.801,0.367,0.649,0.609,�k��,6.9,��
2021/04/07,06:30,0.623,0.918,0.583,1.127,0.803,0.370,0.648,0.610,�k�k��,6.6,��
2021/04/07,06:40,0.623,0.917,0.583,1.126,0.803,0.368,0.649,0.610,�k�k��,6.1,��
2021/04/07,06:50,0.621,0.918,0.582,1.127,0.803,0.367,0.649,0.613,�k�k��,5.8,��
2021/04/07,07:00,0.621,0.919,0.581,1.129,0.802,0.369,0.648,0.610,�k�k��,4.4,��
2021/04/07,07:10,0.622,0.919,0.580,1.126,0.803,0.369,0.649,0.610,�k�k��,5.6,��
2021/04/07,07:20,0.624,0.918,0.582,1.127,0.804,0.370,0.650,0.609,�k,5.0,��
2021/04/07,07:30,0.623,0.918,0.582,1.128,0.802,0.369,0.650,0.612,�k,5.7,��
2021/04/07,07:40,0.624,0.918,0.581,1.127,0.805,0.370,0.650,0.611,�k,5.6,��
2021/04/07,07:50,0.625,0.917,0.581,1.127,0.803,0.368,0.650,0.612,�k,4.9,��
2021/04/07,08:00,0.623,0.917,0.582,1.127,0.803,0.367,0.649,0.612,�k,4.9,��
2021/04/07,08:10,0.624,0.918,0.582,1.127,0.803,0.367,0.651,0.612,�k,5.6,��
2021/04/07,08:20,0.624,0.915,0.583,1.126,0.804,0.369,0.650,0.611,�k,5.4,��
2021/04/07,08:30,0.625,0.913,0.582,1.127,0.803,0.368,0.650,0.611,�k�k��,5.4,��
2021/04/07,08:40,0.623,0.916,0.582,1.129,0.804,0.368,0.649,0.610,�k�k��,5.6,��
2021/04/07,08:50,0.625,0.914,0.582,1.129,0.804,0.367,0.650,0.611,�k,5.1,��
2021/04/07,09:00,0.624,0.913,0.582,1.126,0.804,0.368,0.648,0.610,�k�k��,6.0,��
2021/04/07,09:10,0.624,0.912,0.582,1.126,0.805,0.368,0.648,0.611,�k�k��,6.9,��
2021/04/07,09:20,0.624,0.916,0.580,1.129,0.805,0.367,0.647,0.612,�k�k��,6.4,��
2021/04/07,09:30,0.625,0.915,0.583,1.129,0.804,0.368,0.649,0.610,�k�k��,7.3,��
2021/04/07,09:40,0.623,0.916,0.583,1.130,0.804,0.369,0.647,0.611,�k�k��,7.0,��
2021/04/07,09:50,0.624,0.914,0.584,1.130,0.806,0.369,0.650,0.611,�k�k��,6.9,��
2021/04/07,10:00,0.626,0.912,0.581,1.131,0.804,0.369,0.646,0.610,�k�k��,7.0,��
2021/04/07,10:10,0.625,0.916,0.583,1.127,0.805,0.370,0.648,0.609,�k�k��,6.5,��
2021/04/07,10:20,0.626,0.917,0.583,1.129,0.803,0.368,0.650,0.608,�k�k��,5.8,��
2021/04/07,10:30,0.625,0.914,0.584,1.131,0.803,0.368,0.647,0.609,�k��,5.6,��
2021/04/07,10:40,0.626,0.917,0.584,1.130,0.808,0.367,0.648,0.609,�k�k��,5.9,��
2021/04/07,10:50,0.624,0.917,0.585,1.129,0.806,0.368,0.648,0.611,�k�k��,6.0,��
2021/04/07,11:00,0.622,0.916,0.583,1.131,0.804,0.369,0.648,0.609,�k�k��,5.9,��
2021/04/07,11:10,0.625,0.916,0.584,1.128,0.804,0.368,0.649,0.610,�k�k��,5.5,��
2021/04/07,11:20,0.628,0.914,0.584,1.129,0.806,0.368,0.649,0.609,�k�k��,5.2,��
2021/04/07,11:30,0.626,0.918,0.583,1.127,0.804,0.369,0.650,0.610,�k�k��,4.8,��
2021/04/07,11:40,0.626,0.919,0.583,1.130,0.805,0.369,0.649,0.609,�k�k��,4.6,��
2021/04/07,11:50,0.625,0.921,0.586,1.128,0.808,0.368,0.648,0.609,�k�k��,4.2,��
2021/04/07,12:00,0.626,0.919,0.584,1.130,0.805,0.368,0.649,0.610,�k�k��,4.7,��
2021/04/07,12:10,0.626,0.919,0.582,1.129,0.806,0.369,0.649,0.611,�k�k��,3.5,��
2021/04/07,12:20,0.625,0.920,0.582,1.128,0.808,0.370,0.649,0.610,�k��,3.5,��
2021/04/07,12:30,0.628,0.923,0.583,1.130,0.805,0.369,0.649,0.609,�k�k��,3.6,��
2021/04/07,12:40,0.627,0.920,0.584,1.128,0.806,0.369,0.649,0.609,�k�k��,4.0,��
2021/04/07,12:50,0.626,0.922,0.584,1.132,0.808,0.370,0.650,0.610,�k,4.2,��
2021/04/07,13:00,0.626,0.922,0.583,1.129,0.808,0.370,0.651,0.610,�k��,2.3,��
2021/04/07,13:10,0.628,0.921,0.582,1.132,0.807,0.371,0.650,0.609,���k��,2.9,��
2021/04/07,13:20,0.625,0.921,0.583,1.132,0.807,0.372,0.648,0.608,�k�k��,2.8,��
2021/04/07,13:30,0.627,0.919,0.582,1.131,0.808,0.372,0.649,0.609,�k��,3.4,��
2021/04/07,13:40,0.626,0.920,0.582,1.134,0.807,0.372,0.649,0.608,�k��,2.9,��
2021/04/07,13:50,0.626,0.919,0.584,1.131,0.808,0.370,0.649,0.611,�k��,2.9,��
2021/04/07,14:00,0.627,0.920,0.583,1.131,0.809,0.371,0.649,0.609,�k��,3.1,��
2021/04/07,14:10,0.628,0.918,0.582,1.132,0.807,0.370,0.651,0.609,�k��,2.5,��
2021/04/07,14:20,0.628,0.921,0.583,1.136,0.809,0.370,0.650,0.610,���k��,2.0,��
2021/04/07,14:30,0.626,0.921,0.583,1.133,0.809,0.372,0.651,0.610,���k��,2.6,��
2021/04/07,14:40,0.628,0.922,0.585,1.136,0.809,0.371,0.652,0.611,�k��,2.3,��
2021/04/07,14:50,0.626,0.920,0.585,1.133,0.811,0.370,0.651,0.610,���k��,2.8,��
2021/04/07,15:00,0.628,0.922,0.584,1.133,0.810,0.372,0.651,0.609,�k�k��,2.8,��
2021/04/07,15:10,0.628,0.922,0.584,1.132,0.809,0.371,0.651,0.610,��,2.5,��
2021/04/07,15:20,0.628,0.926,0.584,1.132,0.808,0.371,0.651,0.610,�k��,2.6,��
2021/04/07,15:30,0.625,0.925,0.585,1.133,0.808,0.371,0.650,0.610,���k��,1.7,��
2021/04/07,15:40,0.630,0.925,0.585,1.132,0.808,0.372,0.650,0.609,��,1.5,��
2021/04/07,15:50,0.628,0.924,0.583,1.128,0.810,0.372,0.651,0.610,���k��,2.0,��
2021/04/07,16:00,0.628,0.924,0.587,1.131,0.810,0.370,0.650,0.611,���k��,2.6,��
2021/04/07,16:10,0.627,0.923,0.584,1.130,0.811,0.371,0.651,0.610,��,1.7,��
2021/04/07,16:20,0.627,0.925,0.583,1.130,0.811,0.370,0.649,0.608,��,1.7,��
2021/04/07,16:30,0.627,0.924,0.583,1.130,0.809,0.372,0.651,0.609,���쓌,1.5,��
2021/04/07,16:40,0.627,0.927,0.583,1.131,0.807,0.373,0.650,0.611,�쓌,2.0,��
2021/04/07,16:50,0.629,0.927,0.584,1.131,0.809,0.371,0.651,0.611,���쓌,2.6,��
2021/04/07,17:00,0.629,0.927,0.584,1.132,0.810,0.371,0.652,0.613,��,1.7,��
2021/04/07,17:10,0.625,0.926,0.585,1.133,0.809,0.373,0.651,0.613,��쐼,0.8,��
2021/04/07,17:20,0.627,0.926,0.584,1.133,0.809,0.371,0.651,0.613,���쓌,1.2,��
2021/04/07,17:30,0.629,0.928,0.587,1.132,0.808,0.371,0.650,0.613,��쓌,1.1,��
2021/04/07,17:40,0.631,0.929,0.587,1.135,0.808,0.372,0.650,0.613,��쓌,0.6,��
2021/04/07,17:50,0.629,0.927,0.585,1.135,0.811,0.371,0.651,0.612,-,CALM,��
2021/04/07,18:00,0.630,0.928,0.585,1.133,0.811,0.372,0.650,0.613,-,CALM,��
2021/04/07,18:10,0.629,0.927,0.586,1.133,0.811,0.372,0.651,0.613,�k�k��,0.9,��
2021/04/07,18:20,0.628,0.927,0.586,1.135,0.811,0.372,0.651,0.613,-,CALM,��
2021/04/07,18:30,0.628,0.928,0.585,1.133,0.811,0.371,0.652,0.612,�k�k��,1.2,��
2021/04/07,18:40,0.627,0.927,0.586,1.132,0.812,0.372,0.652,0.611,�k�k��,2.6,��
2021/04/07,18:50,0.627,0.927,0.587,1.132,0.810,0.371,0.652,0.611,�k�k��,2.3,��
2021/04/07,19:00,0.628,0.927,0.586,1.134,0.812,0.372,0.651,0.611,�k�k��,1.7,��
2021/04/07,19:10,0.630,0.926,0.585,1.133,0.812,0.370,0.652,0.612,�k,1.5,��
2021/04/07,19:20,0.631,0.927,0.585,1.133,0.811,0.371,0.650,0.611,�k�k��,2.0,��
2021/04/07,19:30,0.628,0.927,0.585,1.134,0.811,0.372,0.652,0.612,�k�k��,1.2,��
2021/04/07,19:40,0.629,0.925,0.585,1.134,0.812,0.371,0.652,0.612,�k�k��,1.7,��
2021/04/07,19:50,0.631,0.928,0.585,1.134,0.811,0.373,0.652,0.611,��,1.7,��
2021/04/07,20:00,0.630,0.927,0.584,1.132,0.811,0.370,0.652,0.613,��,2.3,��
2021/04/07,20:10,0.628,0.927,0.586,1.133,0.812,0.372,0.652,0.612,��,4.8,��
2021/04/07,20:20,0.629,0.928,0.585,1.133,0.810,0.372,0.652,0.611,���k��,5.5,��
2021/04/07,20:30,0.629,0.926,0.587,1.134,0.810,0.371,0.653,0.612,���k��,5.0,��
2021/04/07,20:40,0.630,0.925,0.585,1.134,0.813,0.371,0.652,0.611,�k��,4.5,��
2021/04/07,20:50,0.628,0.926,0.586,1.134,0.811,0.371,0.652,0.611,�k�k��,4.9,��
2021/04/07,21:00,0.630,0.926,0.587,1.133,0.810,0.371,0.652,0.612,�k�k��,5.0,��
2021/04/07,21:10,0.628,0.927,0.584,1.134,0.811,0.370,0.651,0.612,�k�k��,5.0,��
2021/04/07,21:20,0.627,0.927,0.585,1.133,0.812,0.371,0.651,0.612,�k�k��,5.9,��
2021/04/07,21:30,0.629,0.927,0.586,1.134,0.810,0.371,0.651,0.613,�k��,5.8,��
2021/04/07,21:40,0.628,0.926,0.585,1.134,0.812,0.370,0.651,0.613,�k��,5.4,��
2021/04/07,21:50,0.628,0.925,0.584,1.135,0.812,0.373,0.650,0.612,�k��,3.7,��
2021/04/07,22:00,0.629,0.925,0.586,1.136,0.811,0.371,0.652,0.613,�k��,2.8,��
2021/04/07,22:10,0.628,0.926,0.586,1.133,0.809,0.371,0.650,0.612,��,1.5,��
2021/04/07,22:20,0.628,0.926,0.586,1.134,0.812,0.371,0.651,0.612,�k��,1.5,��
2021/04/07,22:30,0.630,0.924,0.585,1.135,0.811,0.370,0.652,0.611,�k��,1.2,��
2021/04/07,22:40,0.628,0.925,0.585,1.134,0.810,0.370,0.653,0.611,�k�k��,1.5,��
2021/04/07,22:50,0.628,0.926,0.584,1.133,0.810,0.372,0.652,0.612,���쓌,0.8,��
2021/04/07,23:00,0.628,0.925,0.585,1.134,0.810,0.371,0.651,0.612,�k��,0.9,��
2021/04/07,23:10,0.628,0.924,0.584,1.135,0.812,0.371,0.652,0.612,�k��,0.8,��
2021/04/07,23:20,0.628,0.927,0.584,1.135,0.811,0.373,0.650,0.612,�k�k��,1.5,��
2021/04/07,23:30,0.627,0.926,0.585,1.134,0.811,0.370,0.650,0.612,�k,2.6,��
2021/04/07,23:40,0.629,0.925,0.585,1.135,0.810,0.371,0.652,0.612,�k��,4.0,��
2021/04/07,23:50,0.628,0.926,0.584,1.134,0.810,0.371,0.650,0.613,�k��,4.1,��
